,,PA_Meas_PMT16A,,PR_Meas_QMR101_102,,RH_Meas_QMH101,,SR_Meas_QMS101,,TA_Meas_QMH101,,GenWind,,GenWind,
time,status,PA,status,PR,status,RH,status,SR,status,TA,status,DirAvg,status,SpdAvg,
2012-07-03, 00:00:04,VALID,916.196,VALID,0,VALID,97.7627,VALID,0,VALID,18.8853,VALID,12,VALID,0,
2012-07-03, 00:01:04,VALID,916.175,VALID,0,VALID,97.7856,VALID,0,VALID,18.9243,VALID,12,VALID,0,
2012-07-03, 00:02:04,VALID,916.16,VALID,0,VALID,97.7856,VALID,0,VALID,18.9243,VALID,12,VALID,0,
2012-07-03, 00:03:04,VALID,916.114,VALID,0,VALID,97.7703,VALID,0,VALID,18.9438,VALID,12,VALID,0,
2012-07-03, 00:04:04,VALID,916.131,VALID,0,VALID,97.7703,VALID,0,VALID,18.9438,VALID,12,VALID,0,
2012-07-03, 00:05:04,VALID,916.124,VALID,0,VALID,97.7703,VALID,0,VALID,18.9633,VALID,12,VALID,0,
2012-07-03, 00:06:04,VALID,916.116,VALID,0,VALID,97.7856,VALID,0.107441,VALID,18.9633,VALID,12,VALID,0,
2012-07-03, 00:07:04,VALID,916.133,VALID,0,VALID,97.7551,VALID,0.107441,VALID,19.0023,VALID,12,VALID,0,
2012-07-03, 00:08:04,VALID,916.107,VALID,0,VALID,97.7779,VALID,0,VALID,19.0023,VALID,12,VALID,0,
2012-07-03, 00:09:04,VALID,916.083,VALID,0,VALID,97.7703,VALID,0.107441,VALID,19.0413,VALID,12,VALID,0,
2012-07-03, 00:10:04,VALID,916.089,VALID,0,VALID,97.7703,VALID,0,VALID,19.0608,VALID,12,VALID,0,
2012-07-03, 00:11:04,VALID,916.064,VALID,0,VALID,97.7703,VALID,0,VALID,19.1012,VALID,12,VALID,0,
2012-07-03, 00:12:04,VALID,916.049,VALID,0,VALID,97.7779,VALID,0,VALID,19.0817,VALID,12,VALID,0,
2012-07-03, 00:13:04,VALID,916.039,VALID,0,VALID,97.7779,VALID,0,VALID,19.0427,VALID,12,VALID,0,
2012-07-03, 00:14:04,VALID,916.006,VALID,0,VALID,97.7322,VALID,0,VALID,19.0023,VALID,12,VALID,0,
2012-07-03, 00:15:04,VALID,916.023,VALID,0,VALID,97.7551,VALID,0,VALID,18.9842,VALID,12,VALID,0,
2012-07-03, 00:16:04,VALID,915.995,VALID,0,VALID,97.7932,VALID,0,VALID,18.9647,VALID,12,VALID,0,
2012-07-03, 00:17:04,VALID,915.978,VALID,0,VALID,97.7627,VALID,0,VALID,18.9647,VALID,12,VALID,0,
2012-07-03, 00:18:04,VALID,915.998,VALID,0,VALID,97.7551,VALID,0,VALID,18.9662,VALID,12,VALID,0,
2012-07-03, 00:19:04,VALID,915.964,VALID,0,VALID,97.7779,VALID,0,VALID,18.9647,VALID,12,VALID,0,
2012-07-03, 00:20:04,VALID,915.953,VALID,0,VALID,97.7703,VALID,0,VALID,18.9647,VALID,12,VALID,0,
2012-07-03, 00:21:04,VALID,915.917,VALID,0,VALID,97.7932,VALID,0,VALID,18.9452,VALID,76,VALID,0,
2012-07-03, 00:22:04,VALID,915.903,VALID,0,VALID,97.7551,VALID,0,VALID,18.9452,VALID,101,VALID,0,
2012-07-03, 00:23:04,VALID,915.89,VALID,0,VALID,97.7856,VALID,0,VALID,18.9452,VALID,101,VALID,0,
2012-07-03, 00:24:04,VALID,915.901,VALID,0,VALID,97.7779,VALID,0,VALID,18.9438,VALID,101,VALID,0,
2012-07-03, 00:25:04,VALID,915.883,VALID,0,VALID,97.7779,VALID,0.107441,VALID,18.9828,VALID,101,VALID,0,
2012-07-03, 00:26:04,VALID,915.901,VALID,0,VALID,97.7779,VALID,0,VALID,18.9828,VALID,100,VALID,0,
2012-07-03, 00:27:04,VALID,915.9,VALID,0,VALID,97.7779,VALID,0.107441,VALID,19.0023,VALID,101,VALID,0,
2012-07-03, 00:28:04,VALID,915.896,VALID,0,VALID,97.7856,VALID,0.107441,VALID,18.9828,VALID,101,VALID,0,
2012-07-03, 00:29:04,VALID,915.873,VALID,0,VALID,97.7703,VALID,0.107441,VALID,18.9633,VALID,101,VALID,0,
2012-07-03, 00:30:04,VALID,915.907,VALID,0,VALID,97.7703,VALID,0,VALID,18.9633,VALID,101,VALID,0,
2012-07-03, 00:31:04,VALID,915.875,VALID,0,VALID,97.7932,VALID,0,VALID,18.9828,VALID,101,VALID,0,
2012-07-03, 00:32:04,VALID,915.838,VALID,0,VALID,97.7932,VALID,0,VALID,18.9828,VALID,101,VALID,0,
2012-07-03, 00:33:04,VALID,915.83,VALID,0,VALID,97.7932,VALID,0,VALID,18.9828,VALID,101,VALID,0,
2012-07-03, 00:34:04,VALID,915.82,VALID,0,VALID,97.7932,VALID,0,VALID,18.9828,VALID,101,VALID,0,
2012-07-03, 00:35:04,VALID,915.784,VALID,0,VALID,97.7779,VALID,0.107441,VALID,18.9828,VALID,101,VALID,0,
2012-07-03, 00:36:04,VALID,915.777,VALID,0,VALID,97.7779,VALID,0.107441,VALID,18.9633,VALID,101,VALID,0,
2012-07-03, 00:37:04,VALID,915.779,VALID,0,VALID,97.7703,VALID,0,VALID,18.9828,VALID,101,VALID,0,
2012-07-03, 00:38:04,VALID,915.76,VALID,0,VALID,97.7779,VALID,0,VALID,18.9828,VALID,101,VALID,0,
2012-07-03, 00:39:04,VALID,915.769,VALID,0,VALID,97.7856,VALID,0.107441,VALID,18.9633,VALID,101,VALID,0,
2012-07-03, 00:40:04,VALID,915.738,VALID,0,VALID,97.7779,VALID,0.107441,VALID,18.9424,VALID,101,VALID,0,
2012-07-03, 00:41:04,VALID,915.737,VALID,0,VALID,97.7551,VALID,0,VALID,18.9633,VALID,101,VALID,0,
2012-07-03, 00:42:04,VALID,915.731,VALID,0,VALID,97.8008,VALID,0.107441,VALID,18.9438,VALID,101,VALID,0,
2012-07-03, 00:43:04,VALID,915.717,VALID,0,VALID,97.8008,VALID,0.107441,VALID,18.9633,VALID,101,VALID,0,
2012-07-03, 00:44:04,VALID,915.697,VALID,0,VALID,97.7779,VALID,0.107441,VALID,18.9633,VALID,101,VALID,0,
2012-07-03, 00:45:04,VALID,915.701,VALID,0,VALID,97.7856,VALID,0,VALID,18.9633,VALID,101,VALID,0,
2012-07-03, 00:46:04,VALID,915.702,VALID,0,VALID,97.8008,VALID,0.107441,VALID,18.9424,VALID,101,VALID,0,
2012-07-03, 00:47:04,VALID,915.725,VALID,0,VALID,97.7779,VALID,0.107441,VALID,18.9828,VALID,101,VALID,0,
2012-07-03, 00:48:04,VALID,915.721,VALID,0,VALID,97.8008,VALID,0.107441,VALID,19.0023,VALID,101,VALID,0,
2012-07-03, 00:49:04,VALID,915.722,VALID,0,VALID,97.7551,VALID,0.107441,VALID,19.0218,VALID,101,VALID,0,
2012-07-03, 00:50:04,VALID,915.723,VALID,0,VALID,97.7856,VALID,0,VALID,19.0608,VALID,101,VALID,0,
2012-07-03, 00:51:04,VALID,915.703,VALID,0,VALID,97.7932,VALID,0.107441,VALID,19.0998,VALID,101,VALID,0,
2012-07-03, 00:52:04,VALID,915.708,VALID,0,VALID,97.7856,VALID,0,VALID,19.0998,VALID,101,VALID,0,
2012-07-03, 00:53:04,VALID,915.708,VALID,0,VALID,97.7932,VALID,0,VALID,19.0983,VALID,101,VALID,0,
2012-07-03, 00:54:04,VALID,915.655,VALID,0,VALID,97.7856,VALID,0,VALID,19.1193,VALID,101,VALID,0,
2012-07-03, 00:55:04,VALID,915.632,VALID,0,VALID,97.7779,VALID,0,VALID,19.1193,VALID,101,VALID,0,
2012-07-03, 00:56:04,VALID,915.634,VALID,0,VALID,97.7703,VALID,0,VALID,19.1388,VALID,101,VALID,0,
2012-07-03, 00:57:04,VALID,915.584,VALID,0,VALID,97.7627,VALID,0,VALID,19.1388,VALID,101,VALID,0,
2012-07-03, 00:58:04,VALID,915.609,VALID,0,VALID,97.7551,VALID,0,VALID,19.1388,VALID,101,VALID,0,
2012-07-03, 00:59:04,VALID,915.571,VALID,0,VALID,97.7703,VALID,0.107441,VALID,19.1388,VALID,101,VALID,0,
2012-07-03, 01:00:04,VALID,915.567,VALID,0,VALID,97.7779,VALID,0.107441,VALID,19.1388,VALID,101,VALID,0,
2012-07-03, 01:01:04,VALID,915.593,VALID,0,VALID,97.7779,VALID,0,VALID,19.1388,VALID,101,VALID,0,
2012-07-03, 01:02:04,VALID,915.586,VALID,0,VALID,97.7703,VALID,0,VALID,19.1388,VALID,101,VALID,0,
2012-07-03, 01:03:04,VALID,915.579,VALID,0,VALID,97.7703,VALID,0,VALID,19.1207,VALID,101,VALID,0,
2012-07-03, 01:04:04,VALID,915.536,VALID,0,VALID,97.7932,VALID,0,VALID,19.0998,VALID,101,VALID,0,
2012-07-03, 01:05:04,VALID,915.532,VALID,0,VALID,97.7779,VALID,0.107441,VALID,19.0998,VALID,101,VALID,0,
2012-07-03, 01:06:04,VALID,915.494,VALID,0,VALID,97.7703,VALID,0,VALID,19.0803,VALID,101,VALID,0,
2012-07-03, 01:07:04,VALID,915.477,VALID,0,VALID,97.7703,VALID,0,VALID,19.0803,VALID,101,VALID,0,
2012-07-03, 01:08:04,VALID,915.484,VALID,0,VALID,97.7703,VALID,0,VALID,19.0803,VALID,101,VALID,0,
2012-07-03, 01:09:04,VALID,915.463,VALID,0,VALID,97.7703,VALID,0,VALID,19.1193,VALID,101,VALID,0,
2012-07-03, 01:10:04,VALID,915.445,VALID,0,VALID,97.7856,VALID,0.107441,VALID,19.0998,VALID,101,VALID,0,
2012-07-03, 01:11:04,VALID,915.394,VALID,0,VALID,97.7779,VALID,0,VALID,19.0998,VALID,101,VALID,0,
2012-07-03, 01:12:04,VALID,915.409,VALID,0,VALID,97.7703,VALID,0.107441,VALID,19.0803,VALID,101,VALID,0,
2012-07-03, 01:13:04,VALID,915.367,VALID,0,VALID,97.7856,VALID,0,VALID,19.0608,VALID,101,VALID,0,
2012-07-03, 01:14:04,VALID,915.352,VALID,0,VALID,97.7551,VALID,0.107441,VALID,19.0998,VALID,101,VALID,0,
2012-07-03, 01:15:04,VALID,915.351,VALID,0,VALID,97.7856,VALID,0,VALID,19.0803,VALID,101,VALID,0,
2012-07-03, 01:16:04,VALID,915.325,VALID,0,VALID,97.7856,VALID,0,VALID,19.0803,VALID,101,VALID,0,
2012-07-03, 01:17:04,VALID,915.338,VALID,0,VALID,97.7856,VALID,0,VALID,19.0413,VALID,101,VALID,0,
2012-07-03, 01:18:04,VALID,915.348,VALID,0,VALID,97.7779,VALID,0,VALID,19.0622,VALID,101,VALID,0,
2012-07-03, 01:19:04,VALID,915.357,VALID,0,VALID,97.7627,VALID,0,VALID,19.0608,VALID,101,VALID,0,
2012-07-03, 01:20:04,VALID,915.321,VALID,0,VALID,97.8084,VALID,0,VALID,19.0608,VALID,101,VALID,0,
2012-07-03, 01:21:04,VALID,915.32,VALID,0,VALID,97.7703,VALID,0,VALID,19.0608,VALID,101,VALID,0,
2012-07-03, 01:22:04,VALID,915.307,VALID,0,VALID,97.7779,VALID,0.107441,VALID,19.0413,VALID,101,VALID,0,
2012-07-03, 01:23:04,VALID,915.286,VALID,0,VALID,97.8008,VALID,0.107441,VALID,19.0608,VALID,101,VALID,0,
2012-07-03, 01:24:04,VALID,915.299,VALID,0,VALID,97.8084,VALID,0,VALID,19.0803,VALID,101,VALID,0,
2012-07-03, 01:25:04,VALID,915.232,VALID,0,VALID,97.7856,VALID,0,VALID,19.0803,VALID,101,VALID,0,
2012-07-03, 01:26:04,VALID,915.224,VALID,0,VALID,97.8008,VALID,0,VALID,19.0983,VALID,101,VALID,0,
2012-07-03, 01:27:04,VALID,915.202,VALID,0,VALID,97.7932,VALID,0,VALID,19.1388,VALID,101,VALID,0,
2012-07-03, 01:28:04,VALID,915.172,VALID,0,VALID,97.7932,VALID,0,VALID,19.1583,VALID,101,VALID,0,
2012-07-03, 01:29:04,VALID,915.148,VALID,0,VALID,97.7779,VALID,0.107441,VALID,19.1792,VALID,101,VALID,0,
2012-07-03, 01:30:04,VALID,915.129,VALID,0,VALID,97.8084,VALID,0,VALID,19.1388,VALID,101,VALID,0,
2012-07-03, 01:31:04,VALID,915.11,VALID,0,VALID,97.7932,VALID,0,VALID,19.1388,VALID,101,VALID,0,
2012-07-03, 01:32:04,VALID,915.081,VALID,0,VALID,97.7779,VALID,0,VALID,19.1193,VALID,101,VALID,0,
2012-07-03, 01:33:04,VALID,915.042,VALID,0,VALID,97.7932,VALID,0,VALID,19.0998,VALID,101,VALID,0,
2012-07-03, 01:34:04,VALID,915.011,VALID,0,VALID,97.7779,VALID,0.107441,VALID,19.0998,VALID,101,VALID,0,
2012-07-03, 01:35:04,VALID,914.976,VALID,0,VALID,97.8008,VALID,0,VALID,19.0803,VALID,101,VALID,0,
2012-07-03, 01:36:04,VALID,914.969,VALID,0,VALID,97.7932,VALID,0,VALID,19.1207,VALID,101,VALID,0,
2012-07-03, 01:37:04,VALID,914.935,VALID,0,VALID,97.7779,VALID,0.107441,VALID,19.0998,VALID,101,VALID,0,
2012-07-03, 01:38:04,VALID,914.895,VALID,0,VALID,97.7932,VALID,0,VALID,19.0998,VALID,101,VALID,0,
2012-07-03, 01:39:04,VALID,914.921,VALID,0,VALID,97.8008,VALID,0.107441,VALID,19.0998,VALID,101,VALID,0,
2012-07-03, 01:40:04,VALID,914.876,VALID,0,VALID,97.7932,VALID,0,VALID,19.1207,VALID,101,VALID,0,
2012-07-03, 01:41:04,VALID,914.879,VALID,0,VALID,97.8084,VALID,0,VALID,19.1207,VALID,101,VALID,0,
2012-07-03, 01:42:04,VALID,914.868,VALID,0,VALID,97.7932,VALID,0,VALID,19.1222,VALID,101,VALID,0,
2012-07-03, 01:43:04,VALID,914.822,VALID,0,VALID,97.8008,VALID,0,VALID,19.1222,VALID,101,VALID,0,
2012-07-03, 01:44:04,VALID,914.855,VALID,0,VALID,97.7932,VALID,0,VALID,19.0622,VALID,101,VALID,0,
2012-07-03, 01:45:04,VALID,914.767,VALID,0,VALID,97.8008,VALID,0,VALID,19.0622,VALID,101,VALID,0,
2012-07-03, 01:46:04,VALID,914.821,VALID,0,VALID,97.7856,VALID,0,VALID,19.0232,VALID,101,VALID,0,
2012-07-03, 01:47:05,VALID,914.774,VALID,0,VALID,97.8084,VALID,0,VALID,19.0637,VALID,101,VALID,0,
2012-07-03, 01:48:05,VALID,914.775,VALID,0,VALID,97.816,VALID,0,VALID,19.0817,VALID,101,VALID,0,
2012-07-03, 01:49:05,VALID,914.754,VALID,0,VALID,97.7856,VALID,0,VALID,19.0817,VALID,101,VALID,0,
2012-07-03, 01:50:05,VALID,914.743,VALID,0,VALID,97.8008,VALID,0,VALID,19.1207,VALID,101,VALID,0,
2012-07-03, 01:51:05,VALID,914.728,VALID,0,VALID,97.8008,VALID,0,VALID,19.1207,VALID,101,VALID,0,
2012-07-03, 01:52:05,VALID,914.727,VALID,0,VALID,97.7932,VALID,0,VALID,19.1417,VALID,101,VALID,0,
2012-07-03, 01:53:05,VALID,914.716,VALID,0,VALID,97.8008,VALID,0,VALID,19.1027,VALID,101,VALID,0,
2012-07-03, 01:54:05,VALID,914.691,VALID,0,VALID,97.8084,VALID,0,VALID,19.1222,VALID,101,VALID,0,
2012-07-03, 01:55:05,VALID,914.688,VALID,0,VALID,97.7932,VALID,0,VALID,19.0608,VALID,101,VALID,0,
2012-07-03, 01:56:05,VALID,914.66,VALID,0,VALID,97.816,VALID,0,VALID,19.0803,VALID,101,VALID,0,
2012-07-03, 01:57:05,VALID,914.667,VALID,0,VALID,97.8313,VALID,0,VALID,19.1012,VALID,100,VALID,0,
2012-07-03, 01:58:05,VALID,914.644,VALID,0,VALID,97.8084,VALID,0.107441,VALID,19.0788,VALID,101,VALID,0,
2012-07-03, 01:59:05,VALID,914.65,VALID,0,VALID,97.8084,VALID,0.107441,VALID,19.0998,VALID,101,VALID,0,
2012-07-03, 02:00:05,VALID,914.642,VALID,0,VALID,97.8084,VALID,0,VALID,19.0998,VALID,101,VALID,0,
2012-07-03, 02:01:05,VALID,914.633,VALID,0,VALID,97.7932,VALID,0.107441,VALID,19.0998,VALID,101,VALID,0,
2012-07-03, 02:02:05,VALID,914.616,VALID,0,VALID,97.7932,VALID,0,VALID,19.1193,VALID,101,VALID,0,
2012-07-03, 02:03:05,VALID,914.605,VALID,0,VALID,97.8084,VALID,0,VALID,19.1388,VALID,101,VALID,0,
2012-07-03, 02:04:05,VALID,914.579,VALID,0,VALID,97.8008,VALID,0,VALID,19.0998,VALID,101,VALID,0,
2012-07-03, 02:05:05,VALID,914.582,VALID,0,VALID,97.8237,VALID,0,VALID,19.0608,VALID,101,VALID,0,
2012-07-03, 02:06:05,VALID,914.578,VALID,0,VALID,97.816,VALID,0.107441,VALID,19.0608,VALID,101,VALID,0,
2012-07-03, 02:07:05,VALID,914.557,VALID,0,VALID,97.8008,VALID,0,VALID,19.0608,VALID,101,VALID,0,
2012-07-03, 02:08:05,VALID,914.56,VALID,0,VALID,97.8313,VALID,0.107441,VALID,19.0608,VALID,101,VALID,0,
2012-07-03, 02:09:05,VALID,914.553,VALID,0,VALID,97.7932,VALID,0,VALID,19.0803,VALID,101,VALID,0,
2012-07-03, 02:10:05,VALID,914.548,VALID,0,VALID,97.8008,VALID,0,VALID,19.0622,VALID,101,VALID,0,
2012-07-03, 02:11:05,VALID,914.58,VALID,0,VALID,97.8084,VALID,0,VALID,19.0817,VALID,101,VALID,0,
2012-07-03, 02:12:05,VALID,914.551,VALID,0,VALID,97.816,VALID,0,VALID,19.1012,VALID,101,VALID,0,
2012-07-03, 02:13:05,VALID,914.538,VALID,0,VALID,97.7932,VALID,0,VALID,19.1207,VALID,101,VALID,0,
2012-07-03, 02:14:05,VALID,914.573,VALID,0,VALID,97.7856,VALID,0,VALID,19.1417,VALID,101,VALID,0,
2012-07-03, 02:15:05,VALID,914.57,VALID,0,VALID,97.7932,VALID,0,VALID,19.1402,VALID,101,VALID,0,
2012-07-03, 02:16:05,VALID,914.574,VALID,0,VALID,97.8084,VALID,0,VALID,19.1027,VALID,101,VALID,0,
2012-07-03, 02:17:05,VALID,914.563,VALID,0,VALID,97.7932,VALID,0,VALID,19.0832,VALID,101,VALID,0,
2012-07-03, 02:18:05,VALID,914.548,VALID,0,VALID,97.8008,VALID,0,VALID,19.0817,VALID,101,VALID,0,
2012-07-03, 02:19:05,VALID,914.552,VALID,0,VALID,97.8008,VALID,0,VALID,19.1012,VALID,101,VALID,0,
2012-07-03, 02:20:05,VALID,914.538,VALID,0,VALID,97.8084,VALID,0,VALID,19.0817,VALID,101,VALID,0,
2012-07-03, 02:21:05,VALID,914.546,VALID,0,VALID,97.8237,VALID,0,VALID,19.0817,VALID,101,VALID,0,
2012-07-03, 02:22:05,VALID,914.524,VALID,0,VALID,97.816,VALID,0,VALID,19.1027,VALID,101,VALID,0,
2012-07-03, 02:23:05,VALID,914.512,VALID,0,VALID,97.7932,VALID,0,VALID,19.0817,VALID,101,VALID,0,
2012-07-03, 02:24:05,VALID,914.511,VALID,0,VALID,97.8008,VALID,0,VALID,19.1207,VALID,101,VALID,0,
2012-07-03, 02:25:05,VALID,914.479,VALID,0,VALID,97.816,VALID,0.107441,VALID,19.1193,VALID,101,VALID,0,
2012-07-03, 02:26:05,VALID,914.459,VALID,0,VALID,97.816,VALID,0.107441,VALID,19.1388,VALID,101,VALID,0,
2012-07-03, 02:27:05,VALID,914.454,VALID,0,VALID,97.816,VALID,0,VALID,19.1193,VALID,101,VALID,0,
2012-07-03, 02:28:05,VALID,914.453,VALID,0,VALID,97.816,VALID,0,VALID,19.1193,VALID,101,VALID,0,
2012-07-03, 02:29:05,VALID,914.443,VALID,0,VALID,97.816,VALID,0.107441,VALID,19.0803,VALID,101,VALID,0,
2012-07-03, 02:30:05,VALID,914.45,VALID,0,VALID,97.8237,VALID,0,VALID,19.1012,VALID,101,VALID,0,
2012-07-03, 02:31:05,VALID,914.447,VALID,0,VALID,97.816,VALID,0,VALID,19.0803,VALID,101,VALID,0,
2012-07-03, 02:32:05,VALID,914.416,VALID,0,VALID,97.8084,VALID,0.107441,VALID,19.0803,VALID,101,VALID,0,
2012-07-03, 02:33:05,VALID,914.42,VALID,0,VALID,97.8084,VALID,0,VALID,19.0803,VALID,101,VALID,0,
2012-07-03, 02:34:05,VALID,914.387,VALID,0,VALID,97.8084,VALID,0,VALID,19.1012,VALID,101,VALID,0,
2012-07-03, 02:35:05,VALID,914.369,VALID,0,VALID,97.8084,VALID,0,VALID,19.1402,VALID,101,VALID,0,
2012-07-03, 02:36:05,VALID,914.369,VALID,0,VALID,97.8084,VALID,0,VALID,19.1388,VALID,101,VALID,0,
2012-07-03, 02:37:05,VALID,914.333,VALID,0,VALID,97.8237,VALID,0,VALID,19.1193,VALID,101,VALID,0,
2012-07-03, 02:38:05,VALID,914.32,VALID,0,VALID,97.8084,VALID,0,VALID,19.0998,VALID,101,VALID,0,
2012-07-03, 02:39:05,VALID,914.292,VALID,0,VALID,97.816,VALID,0,VALID,19.1193,VALID,101,VALID,0,
2012-07-03, 02:40:05,VALID,914.321,VALID,0,VALID,97.8313,VALID,0,VALID,19.1012,VALID,101,VALID,0,
2012-07-03, 02:41:05,VALID,914.3,VALID,0,VALID,97.8008,VALID,0,VALID,19.1417,VALID,101,VALID,0,
2012-07-03, 02:42:05,VALID,914.313,VALID,0,VALID,97.8084,VALID,0,VALID,19.1417,VALID,101,VALID,0,
2012-07-03, 02:43:05,VALID,914.336,VALID,0,VALID,97.8389,VALID,0,VALID,19.1807,VALID,101,VALID,0,
2012-07-03, 02:44:05,VALID,914.306,VALID,0,VALID,97.8237,VALID,0,VALID,19.1597,VALID,101,VALID,0,
2012-07-03, 02:45:05,VALID,914.325,VALID,0,VALID,97.8084,VALID,0,VALID,19.2002,VALID,101,VALID,0,
2012-07-03, 02:46:05,VALID,914.32,VALID,0,VALID,97.7932,VALID,0,VALID,19.1807,VALID,101,VALID,0,
2012-07-03, 02:47:05,VALID,914.339,VALID,0,VALID,97.816,VALID,0,VALID,19.1612,VALID,101,VALID,0,
2012-07-03, 02:48:05,VALID,914.327,VALID,0,VALID,97.816,VALID,0,VALID,19.1402,VALID,101,VALID,0,
2012-07-03, 02:49:05,VALID,914.29,VALID,0,VALID,97.8084,VALID,0,VALID,19.1402,VALID,101,VALID,0,
2012-07-03, 02:50:05,VALID,914.297,VALID,0,VALID,97.8313,VALID,0,VALID,19.1597,VALID,101,VALID,0,
2012-07-03, 02:51:05,VALID,914.325,VALID,0,VALID,97.8313,VALID,0,VALID,19.1612,VALID,101,VALID,0,
2012-07-03, 02:52:05,VALID,914.309,VALID,0,VALID,97.8237,VALID,0,VALID,19.1207,VALID,101,VALID,0,
2012-07-03, 02:53:05,VALID,914.322,VALID,0,VALID,97.8084,VALID,0,VALID,19.1597,VALID,101,VALID,0,
2012-07-03, 02:54:05,VALID,914.323,VALID,0,VALID,97.8084,VALID,0,VALID,19.1417,VALID,101,VALID,0,
2012-07-03, 02:55:05,VALID,914.344,VALID,0,VALID,97.7932,VALID,0,VALID,19.1597,VALID,101,VALID,0,
2012-07-03, 02:56:05,VALID,914.294,VALID,0,VALID,97.8084,VALID,0,VALID,19.1207,VALID,101,VALID,0,
2012-07-03, 02:57:05,VALID,914.325,VALID,0,VALID,97.8237,VALID,0,VALID,19.0622,VALID,101,VALID,0,
2012-07-03, 02:58:05,VALID,914.323,VALID,0,VALID,97.7932,VALID,0,VALID,19.0622,VALID,101,VALID,0,
2012-07-03, 02:59:05,VALID,914.337,VALID,0,VALID,97.8313,VALID,0,VALID,19.0218,VALID,101,VALID,0,
2012-07-03, 03:00:05,VALID,914.321,VALID,0,VALID,97.8542,VALID,0.107441,VALID,19.0023,VALID,101,VALID,0,
2012-07-03, 03:01:05,VALID,914.317,VALID,0,VALID,97.8389,VALID,0,VALID,19.0413,VALID,101,VALID,0,
2012-07-03, 03:02:05,VALID,914.287,VALID,0,VALID,97.816,VALID,0,VALID,19.0023,VALID,101,VALID,0,
2012-07-03, 03:03:05,VALID,914.264,VALID,0,VALID,97.816,VALID,0,VALID,19.0023,VALID,101,VALID,0,
2012-07-03, 03:04:05,VALID,914.309,VALID,0,VALID,97.8237,VALID,0,VALID,19.0023,VALID,101,VALID,0,
2012-07-03, 03:05:05,VALID,914.269,VALID,0,VALID,97.8313,VALID,0,VALID,19.0232,VALID,101,VALID,0,
2012-07-03, 03:06:05,VALID,914.288,VALID,0,VALID,97.816,VALID,0.107441,VALID,19.0023,VALID,101,VALID,0,
2012-07-03, 03:07:05,VALID,914.253,VALID,0,VALID,97.8237,VALID,0,VALID,19.0023,VALID,101,VALID,0,
2012-07-03, 03:08:05,VALID,914.272,VALID,0,VALID,97.8465,VALID,0,VALID,19.0232,VALID,101,VALID,0,
2012-07-03, 03:09:05,VALID,914.274,VALID,0,VALID,97.8389,VALID,0,VALID,19.0427,VALID,101,VALID,0,
2012-07-03, 03:10:05,VALID,914.292,VALID,0,VALID,97.8542,VALID,0,VALID,19.0023,VALID,101,VALID,0,
2012-07-03, 03:11:05,VALID,914.323,VALID,0,VALID,97.816,VALID,0,VALID,19.0413,VALID,101,VALID,0,
2012-07-03, 03:12:05,VALID,914.296,VALID,0,VALID,97.8313,VALID,0,VALID,18.9828,VALID,101,VALID,0,
2012-07-03, 03:13:05,VALID,914.31,VALID,0,VALID,97.8313,VALID,0,VALID,18.9828,VALID,101,VALID,0,
2012-07-03, 03:14:05,VALID,914.319,VALID,0,VALID,97.8389,VALID,0,VALID,18.9633,VALID,132,VALID,0,
2012-07-03, 03:15:05,VALID,914.29,VALID,0,VALID,97.8465,VALID,0.107441,VALID,18.9424,VALID,119,VALID,0,
2012-07-03, 03:16:05,VALID,914.28,VALID,0,VALID,97.8542,VALID,0,VALID,18.9438,VALID,114,VALID,0,
2012-07-03, 03:17:05,VALID,914.305,VALID,0,VALID,97.8237,VALID,0,VALID,18.9438,VALID,128,VALID,0,
2012-07-03, 03:18:05,VALID,914.308,VALID,0,VALID,97.8084,VALID,0,VALID,18.9842,VALID,126,VALID,0,
2012-07-03, 03:19:05,VALID,914.296,VALID,0,VALID,97.8237,VALID,0,VALID,18.9647,VALID,109,VALID,0,
2012-07-03, 03:20:05,VALID,914.313,VALID,0,VALID,97.8389,VALID,0,VALID,18.9438,VALID,137,VALID,0,
2012-07-03, 03:21:05,VALID,914.294,VALID,0,VALID,97.8389,VALID,0,VALID,18.9647,VALID,112,VALID,0,
2012-07-03, 03:22:05,VALID,914.278,VALID,0,VALID,97.8389,VALID,0,VALID,18.9842,VALID,131,VALID,0,
2012-07-03, 03:23:05,VALID,914.278,VALID,0,VALID,97.8618,VALID,0,VALID,18.9647,VALID,138,VALID,0,
2012-07-03, 03:24:05,VALID,914.251,VALID,0,VALID,97.8542,VALID,0.107441,VALID,18.9633,VALID,137,VALID,0,
2012-07-03, 03:25:05,VALID,914.29,VALID,0,VALID,97.8542,VALID,0,VALID,18.9647,VALID,143,VALID,0,
2012-07-03, 03:26:05,VALID,914.303,VALID,0,VALID,97.8465,VALID,0,VALID,18.9857,VALID,143,VALID,0,
2012-07-03, 03:27:05,VALID,914.308,VALID,0,VALID,97.8389,VALID,0,VALID,18.9647,VALID,126,VALID,0,
2012-07-03, 03:28:05,VALID,914.32,VALID,0,VALID,97.8542,VALID,0,VALID,18.9452,VALID,113,VALID,0,
2012-07-03, 03:29:05,VALID,914.337,VALID,0,VALID,97.8618,VALID,0,VALID,18.9452,VALID,113,VALID,0,
2012-07-03, 03:30:05,VALID,914.337,VALID,0,VALID,97.8465,VALID,0,VALID,18.9647,VALID,113,VALID,0,
2012-07-03, 03:31:05,VALID,914.34,VALID,0,VALID,97.8542,VALID,0,VALID,18.9662,VALID,113,VALID,0,
2012-07-03, 03:32:05,VALID,914.33,VALID,0,VALID,97.8389,VALID,0,VALID,18.9662,VALID,117,VALID,0,
2012-07-03, 03:33:05,VALID,914.314,VALID,0,VALID,97.8389,VALID,0,VALID,18.9452,VALID,117,VALID,0,
2012-07-03, 03:34:05,VALID,914.344,VALID,0,VALID,97.8389,VALID,0,VALID,18.9452,VALID,117,VALID,0,
2012-07-03, 03:35:05,VALID,914.294,VALID,0,VALID,97.8465,VALID,0,VALID,18.9452,VALID,127,VALID,0,
2012-07-03, 03:36:05,VALID,914.255,VALID,0,VALID,97.8465,VALID,0,VALID,18.9452,VALID,127,VALID,0,
2012-07-03, 03:37:05,VALID,914.226,VALID,0,VALID,97.8542,VALID,0,VALID,18.9662,VALID,127,VALID,0,
2012-07-03, 03:38:05,VALID,914.206,VALID,0,VALID,97.8465,VALID,0,VALID,18.9647,VALID,127,VALID,0,
2012-07-03, 03:39:05,VALID,914.181,VALID,0,VALID,97.8542,VALID,0,VALID,18.9452,VALID,127,VALID,0,
2012-07-03, 03:40:05,VALID,914.183,VALID,0,VALID,97.8542,VALID,0,VALID,18.9647,VALID,127,VALID,0,
2012-07-03, 03:41:05,VALID,914.181,VALID,0,VALID,97.8389,VALID,0,VALID,18.9662,VALID,127,VALID,0,
2012-07-03, 03:42:05,VALID,914.2,VALID,0,VALID,97.8542,VALID,0,VALID,18.9857,VALID,127,VALID,0,
2012-07-03, 03:43:05,VALID,914.203,VALID,0,VALID,97.8389,VALID,0,VALID,18.9662,VALID,127,VALID,0,
2012-07-03, 03:44:05,VALID,914.205,VALID,0,VALID,97.8694,VALID,0,VALID,18.9647,VALID,127,VALID,0,
2012-07-03, 03:45:05,VALID,914.224,VALID,0,VALID,97.8465,VALID,0,VALID,18.9857,VALID,127,VALID,0,
2012-07-03, 03:46:05,VALID,914.233,VALID,0,VALID,97.8618,VALID,0,VALID,18.9857,VALID,127,VALID,0,
2012-07-03, 03:47:05,VALID,914.251,VALID,0,VALID,97.8465,VALID,0,VALID,18.9842,VALID,127,VALID,0,
2012-07-03, 03:48:05,VALID,914.241,VALID,0,VALID,97.8542,VALID,0,VALID,19.0052,VALID,127,VALID,0,
2012-07-03, 03:49:05,VALID,914.23,VALID,0,VALID,97.8542,VALID,0,VALID,18.9842,VALID,127,VALID,0,
2012-07-03, 03:50:05,VALID,914.261,VALID,0,VALID,97.8465,VALID,0,VALID,18.9842,VALID,127,VALID,0,
2012-07-03, 03:51:05,VALID,914.291,VALID,0,VALID,97.8542,VALID,0,VALID,19.0052,VALID,127,VALID,0,
2012-07-03, 03:52:05,VALID,914.281,VALID,0,VALID,97.8465,VALID,0,VALID,18.9842,VALID,127,VALID,0,
2012-07-03, 03:53:05,VALID,914.269,VALID,0,VALID,97.8465,VALID,0,VALID,18.9842,VALID,127,VALID,0,
2012-07-03, 03:54:05,VALID,914.237,VALID,0,VALID,97.8618,VALID,0,VALID,18.9842,VALID,127,VALID,0,
2012-07-03, 03:55:05,VALID,914.22,VALID,0,VALID,97.8542,VALID,0.107441,VALID,18.9633,VALID,127,VALID,0,
2012-07-03, 03:56:05,VALID,914.188,VALID,0,VALID,97.8389,VALID,0,VALID,18.9633,VALID,127,VALID,0,